Gold Country Challenge - Loft Flight - Still Smoky

Station: Loft Fly Inventory - T Race

Distance: 10 Miles

Release: 15-Sep-2020 07:40

Weather Release: Smoke Haze/Mild    Arrival: Smoke Haze/80s Today

Wind at Release:     Wind at Arrival:

Temp at Release: °    Temp at Arrival: °

Lofts: 106

Birds: 413

Clocked: 413

Still too smoky to resume training or loft flying every day.
Drops Pos Breeder Pigeon Name Color Sex Ent Arrival Speed To Win Elg PdChamp
1 Racing Pigeon Mall - WA 1008-AU20-RPM BB H 1 08:57:23.00 227.439 00:00:00 Yes
2 Valhalla Loft - CA 2019-AU20-WSJ MLY H 1 08:57:23.10 227.434 00:00:00 Yes
3 Jim Cain - CA 3243-AU20-FSC BB H 1 08:57:23.40 227.420 00:00:00 Yes
3 A P C Loft - TX 20111-AU20-APC BBWF H 1 08:57:23.40 227.420 00:00:00 Yes
5 Skylinerpl.Com - UT 35770-AU20-JEDD "Golden Kaasboer" BBWF H 1 08:57:23.50 227.415 00:00:00 Yes
6 Double J Loft Of Tx. - TX 0105-AU20-WACO 263 X 1611 BC H 1 08:57:26.20 227.283 00:00:03 Yes
7 Denis Eastwood - CA 2102-AU20-HANG SLT H 1 08:57:26.30 227.278 00:00:03 Missing
8 Stelling Loft - NM 0074-AU20-JHS BB H 1 08:57:29.70 227.111 00:00:07 Yes
9 Oddiebeng Loft - CA 9669-AU20-FOYS BC H 1 08:57:35.90 226.809 00:00:13 Yes
10 Perfection Loft - KS 13050-AU20-AA BB H 1 08:57:40.30 226.595 00:00:17 Yes
11 Skychargers 2 - CA 0102-AU20-CORO BB H 1 08:57:41.90 226.517 00:00:19 Yes
12 Skychargers 2 - CA 0109-AU20-CORO PIED H 2 08:57:44.70 226.381 00:00:22 Yes
13 Walters Loft - NJ 56405-AU20-ARPU DC H 1 08:57:45.40 226.347 00:00:22 Yes
14 Terry-M-Loft - NV 0122-AU20-RENO BC H 1 08:57:46.30 226.303 00:00:23 Yes
15 Genesis Syndicate Loft - AZ 0560-AU20-GENS BCWF H 1 08:57:47.40 226.250 00:00:24 Yes
16 Pellizzari Loft - CA 1003-AU20-WSJ BC H 1 08:58:02.50 225.521 00:00:39 Yes
17 B S Lofts - CA 13322-AU20-JEDD 232 & 26-2 BC H 1 08:58:02.60 225.516 00:00:40 Yes
18 Stark Loft - CA 2010-AU20-HANG Prospector BBSP C 1 08:58:04.60 225.419 00:00:42 Yes
19 Sugaronni Loft - CA 25500-AU20-FOYS BB H 1 08:58:04.70 225.415 00:00:42 Yes
20 R & D Racing 2 - ON 4407-AU20-AA BC H 1 08:58:06.80 225.314 00:00:44 Yes
21 B S Lofts - CA 13307-AU20-JEDD 3057 & 877 BB H 2 08:58:07.60 225.275 00:00:45 Missing
22 Geronimo Loft - MI 5788-AU20-CRAZ BB H 1 08:58:08.70 225.222 00:00:46 Yes
23 Dud/Tx Mx/Ramp - TX 9468-AU20-AA BB H 1 08:58:11.70 225.078 00:00:49 Yes
24 Sports House Pigeons - CA 5501-AU20-JEDD BB H 1 08:58:14.70 224.935 00:00:52 Yes
25 Bieche-Stevenson - CA 0297-AU20-BIE BB H 1 08:58:15.20 224.911 00:00:52 Yes
26 Unassigned - OR 0538-AU20-GENS BB H 2 08:58:16.70 224.839 00:00:54 Lost
27 Do Drop In Loft - NC 0052-IF20-TRC Lickety Split BB H 1 08:58:17.50 224.800 00:00:55 Lost
28 Dud/Tx Mx/Ramp - TX 20128-AU20-PUEB BC H 2 08:58:20.30 224.667 00:00:57 Yes
29 Genesis Syndicate Loft - AZ 0570-AU20-GENS BCWF H 3 08:58:21.30 224.619 00:00:58 Yes
30 Crazy Al & Chris Melucci - CO 15703-AU20-AA BC H 1 08:58:23.80 224.499 00:01:01 Yes
31 Callahan Loft - MO 0957-AU20-AA DC H 1 08:58:26.70 224.361 00:01:04 Yes
32 Rob Wilson - CA 45305-AU20-ARPU BB H 1 08:58:26.90 224.351 00:01:04 Yes
33 John Gutierrez - NM 0229-AU20-GUTZ 931/Dyk BBSP H 1 08:58:27.70 224.313 00:01:05 Yes
34 Perfection Loft - KS 13049-AU20-AA BBWF H 2 08:58:35.50 223.942 00:01:13 Yes
35 Rueter Family Loft - OR 4631-AU20-CORP BB H 1 08:58:35.90 223.923 00:01:13 Yes
36 Sparks Trio Syn - NV 0317-AU20-RENO BB H 1 08:58:36.20 223.909 00:01:13 Yes
37 Igor & Sons Loft - OR 0228-AU20-OTC BC H 1 08:58:36.80 223.881 00:01:14 Yes
38 Allison Ranch - CA 1155-AU20-FSC PIED H 1 08:58:38.60 223.795 00:01:16 Yes
39 Portland Loft - OR 2514-AU20-PNW BC H 1 08:58:40.00 223.729 00:01:17 Yes
40 Gomez Loft - CA 2641-AU20-CHP BB H 1 08:58:41.60 223.653 00:01:19 Yes
41 Euro Dead - CA 29151-AU20-JEDD F-6619 F-6758 BBPD H 1 08:58:42.30 223.620 00:01:19 Missing
42 Denis Eastwood - CA 2109-AU20-HANG BB H 2 08:58:43.60 223.558 00:01:21 Yes
43 White Arrow Loft - IL 0560-AU20-LCC MYPD H 1 08:58:44.40 223.520 00:01:21 Yes
44 Double Diamond Tack & Feed - CA 2021-AU20-HANG Double D BB H 1 08:58:49.50 223.279 00:01:27 Yes
45 Mtm Lofts - MT 0128-AU20-BMT BB C 1 08:58:51.40 223.190 00:01:28 Yes
46 Kirsch Boys - OH 3202-AU20-VITA DCWF H 1 08:58:52.10 223.157 00:01:29 Missing
47 PNWC - ID 0032-AU20-PNWC Pair# 13 BC H 1 08:58:52.40 223.143 00:01:29 Yes
48 Allison Ranch - CA 1154-AU20-FSC MLY H 2 08:58:56.90 222.931 00:01:34 Yes
49 Rodriguez Loft - TX 5454-AU20-JEDD INB55-BLAD BLK H 1 08:58:59.70 222.799 00:01:37 Yes
50 Frank Gonsalves - CA 1017-AU20-AA BB H 1 08:59:00.70 222.752 00:01:38 Yes
51 House Of Paine - CA 0256-AU20-HOP 565x16 GRIZ H 1 08:59:04.70 222.564 00:01:42 Yes
52 Stark Loft - CA 2008-AU20-HANG Blue Gold BB C 2 08:59:06.30 222.489 00:01:43 Yes
53 Double J Loft Of Tx. - TX 0106-AU20-WACO 263 X 1611 BC H 2 08:59:06.80 222.466 00:01:44 Yes
54 Euro Dead - CA 29158-AU20-JEDD C-232 A-168 BB H 2 08:59:07.80 222.419 00:01:45 Yes
55 Skylinerpl.Com - UT 35880-AU20-JEDD "Algarve Girl" BBSP H 2 08:59:11.20 222.260 00:01:48 Yes
55 Stark Loft - CA 2005-AU20-HANG Ruby Red RDST H 3 08:59:11.20 222.260 00:01:48 Missing
57 F-R-E-L Syndicate - CA 7015-AU20-AA Francis 015 BB H 1 08:59:12.50 222.199 00:01:49 Yes
58 G & J Lofts - CA 0078-AU20-GJ Checker Out BC H 1 08:59:14.80 222.091 00:01:52 Lost
59 John & Omelio - NM 20064-AU20-NMRP BC H 1 08:59:26.90 221.528 00:02:04 Yes
60 Kereru Whare - CA 1172-AU20-FSC BB H 1 08:59:32.40 221.272 00:02:09 Yes
61 PNWC - ID 1209-AU20-IDA Pair# J12 BB H 2 08:59:34.70 221.166 00:02:12 Yes
62 Bieu Tran - CA 0058-AU20-HJ BB H 1 08:59:37.70 221.027 00:02:15 Yes
63 F-R-E-L Syndicate - CA 7016-AU20-AA Francis 016 BB H 2 08:59:39.10 220.962 00:02:16 Yes
64 Marengo Creek Farms - GA 3524-AU20-MCF BB H 1 08:59:40.20 220.911 00:02:17 Yes
65 Euro Dead - CA 29163-AU20-JEDD S-7 C-6659 BB H 3 08:59:48.10 220.547 00:02:25 Inj
66 Euro Dead - CA 29156-AU20-JEDD DV-849 J-30413 BB H 4 08:59:55.80 220.193 00:02:33 Yes
67 American Star Racing Pigeons - CA 0123-AU20-ASTR BB H 1 08:59:58.10 220.087 00:02:35 Yes
68 Emmalyn & Carelyn Loft - CA 0701-AU20-CEYX ~ CEYX 701 ~ BC H 1 09:00:02.70 219.876 00:02:40 Yes
69 F-R-E-L Syndicate - CA 16303-AU20-AA Whell's 303 BC H 3 09:00:03.40 219.844 00:02:40 Yes
70 Winwin Loft - CA 7305-AU20-JEDD RC H 1 09:00:03.90 219.821 00:02:41 Yes
71 Sparks Trio Syn - NV 0314-AU20-RENO BC H 2 09:00:11.40 219.479 00:02:48 Yes
72 Euro Dead - CA 29153-AU20-JEDD C-6640 DV-7768 BB H 5 09:00:19.80 219.096 00:02:57 Yes
73 White Arrow Loft - IL 0555-AU20-LCC New Chip Ring BB H 2 09:00:26.30 218.801 00:03:03 Yes
74 Tapia Lofts - NM 21296-CU20-OSH 17055/18080 BBSP H 1 09:00:29.80 218.643 00:03:07 Lost
75 Denis Eastwood - CA 2111-AU20-HANG BB H 3 09:00:30.40 218.615 00:03:07 Yes
76 House Of Paine - CA 0228-AU20-HOP 779x1196 DC H 2 09:00:33.90 218.457 00:03:11 Yes
77 Dan & Greg Coury - AZ 0550-AU20-AONE BB H 1 09:00:37.90 218.277 00:03:15 Yes
78 A P C Loft - TX 20128-AU20-APC BBWF H 2 09:00:45.80 217.921 00:03:23 Yes
79 Salsloft.Com & Sons - UT 2097-AU20-SALS BB H 1 09:00:46.50 217.889 00:03:24 Yes
80 F-R-E-L Syndicate - CA 16905-AU20-JEDD Reb 905 BB H 4 09:00:48.20 217.813 00:03:25 Yes
81 Genesis Syndicate Loft - AZ 0579-AU20-GENS BC H 4 09:00:48.90 217.781 00:03:26 Yes
82 Denis Eastwood - CA 2107-AU20-HANG BB H 4 09:00:49.90 217.736 00:03:27 Yes
83 A-Lo Loft/Nemelka - UT 0029-AU20-ALOL ☯️☯️☯️ BB H 1 09:00:51.30 217.674 00:03:28 Yes
84 Stelling Loft - NM 0081-AU20-JHS BB H 2 09:00:56.90 217.423 00:03:34 Yes
85 American Star Racing Pigeons - CA 0116-AU20-ASTR BB H 2 09:00:59.90 217.288 00:03:37 Yes
86 Wonderwings Lofts - CA 2040-AU20-MAN Lightning BBWF H 1 09:01:00.00 217.284 00:03:37 Yes
87 B S Lofts - CA 13312-AU20-JEDD 232 & 26-1 BB H 3 09:01:01.40 217.221 00:03:38 Yes
88 Wonderwings Lofts - CA 2046-AU20-MAN Hurricane BB H 2 09:01:06.20 217.007 00:03:43 Yes
89 Marengo Creek Farms - GA 3539-AU20-MCF BB H 2 09:01:10.10 216.833 00:03:47 Yes
90 Emmalyn & Carelyn Loft - CA 0708-AU20-CEYX ~ CEYX 708 ~ BB H 2 09:01:12.00 216.749 00:03:49 Yes
91 Jamie Bertero - CA 0816-AU20-ML BB H 1 09:01:17.40 216.509 00:03:54 Yes
92 A P C Loft - TX 20082-AU20-APC BB H 3 09:01:18.00 216.482 00:03:55 Yes
93 Her Loft - CA 0627-AU20-CCU BB H 1 09:01:20.00 216.393 00:03:57 Yes
94 Sierra Ranch - CA 2040-AU20-SR Gold finger BB H 1 09:01:21.40 216.331 00:03:58 Yes
95 John V. Partridge - CA 2115-AU20-PASO King Bond BB H 1 09:01:58.60 214.695 00:04:36 Yes
96 Marengo Creek Farms - GA 3505-AU20-MCF SLWS H 3 09:02:04.80 214.425 00:04:42 Yes
97 Bob Niemeyer - CA 1058-AU20-AUB BB H 1 09:02:06.60 214.347 00:04:44 Yes
98 Genesis Syndicate Loft - AZ 0542-AU20-GENS BC H 5 09:02:07.00 214.329 00:04:44 Yes
99 Skylinerpl.Com - UT 35821-AU20-JEDD "Belser's Girl" BC H 3 09:02:14.30 214.012 00:04:51 Yes
100 Marengo Creek Farms - GA 3538-AU20-MCF BB H 4 09:02:15.80 213.947 00:04:53 Yes

There are 383 bird records

Note: These Race Results are unofficial and subject to change until verified by the Race Committee and declared final.